When you browse on this site, cookies collect data to enhance your experience and personalize the content and advertising you see.
Visit our Privacy Policy to learn more. By continuing to use the site, you agree to this use of cookies and data.
  • In Denmark
  • List of Countries
  • For 7 days
  • Water Temperature
  • Satellite Maps
  • Weather Map
  • Weather Widgets
  • user-avatar
    Login

    Hourly Weather Plymouth

    Today, 23 March, Saturday

    Time Temperature Precipitation Wind Pressure Humidity
    00:00 +9°C° 0 mm 1 mps 770 mmHg 96%
    01:00 +8°C° 0 mm 2 mps 770 mmHg 96%
    02:00 +9°C° 0 mm 2 mps 770 mmHg 96%
    03:00 +9°C° 0 mm 2 mps 770 mmHg 96%
    04:00 +9°C° 0 mm 2 mps 770 mmHg 95%
    05:00 +8°C° 0 mm 3 mps 771 mmHg 94%
    06:00 +8°C° 0 mm 3 mps 771 mmHg 93%
    07:00 +8°C° 0 mm 4 mps 771 mmHg 91%
    08:00 +8°C° 0 mm 4 mps 771 mmHg 90%
    09:00 +10°C° 0 mm 4 mps 771 mmHg 89%
    10:00 +9°C° 0 mm 5 mps 772 mmHg 87%
    11:00 +10°C° 0 mm 5 mps 772 mmHg 86%
    12:00 +10°C° 0 mm 5 mps 772 mmHg 85%
    13:00 +10°C° 0 mm 5 mps 771 mmHg 87%
    14:00 +11°C° 0 mm 4 mps 771 mmHg 88%
    15:00 +11°C° 0 mm 4 mps 771 mmHg 89%
    16:00 +10°C° 0.1 mm 4 mps 771 mmHg 91%
    17:00 +10°C° 0.1 mm 4 mps 771 mmHg 92%
    18:00 +10°C° 0.1 mm 4 mps 771 mmHg 94%
    19:00 +8°C° 0 mm 4 mps 771 mmHg 95%
    20:00 +9°C° 0 mm 3 mps 771 mmHg 95%
    21:00 +9°C° 0 mm 3 mps 772 mmHg 96%
    22:00 +9°C° 0 mm 3 mps 772 mmHg 96%
    23:00 +9°C° 0 mm 3 mps 772 mmHg 97%

    Tomorrow, 24 March, Sunday

    Time Temperature Precipitation Wind Pressure Humidity
    00:00 +9°C° 0 mm 3 mps 772 mmHg 97%
    01:00 +9°C° 0.1 mm 3 mps 771 mmHg 97%
    02:00 +9°C° 0.1 mm 3 mps 771 mmHg 97%
    03:00 +9°C° 0.1 mm 3 mps 771 mmHg 97%
    04:00 +8°C° 0.1 mm 3 mps 771 mmHg 97%
    05:00 +8°C° 0.1 mm 3 mps 771 mmHg 96%
    06:00 +8°C° 0.1 mm 3 mps 772 mmHg 96%
    07:00 +9°C° 0 mm 3 mps 772 mmHg 93%
    08:00 +9°C° 0 mm 3 mps 773 mmHg 90%
    09:00 +10°C° 0 mm 3 mps 773 mmHg 86%
    10:00 +11°C° 0 mm 3 mps 773 mmHg 81%
    11:00 +12°C° 0 mm 3 mps 773 mmHg 75%
    12:00 +13°C° 0 mm 3 mps 773 mmHg 70%
    13:00 +12°C° 0 mm 3 mps 773 mmHg 68%
    14:00 +12°C° 0 mm 3 mps 773 mmHg 66%
    15:00 +12°C° 0 mm 4 mps 773 mmHg 65%
    16:00 +11°C° 0 mm 4 mps 773 mmHg 70%
    17:00 +8°C° 0 mm 4 mps 773 mmHg 74%
    18:00 +7°C° 0 mm 4 mps 773 mmHg 79%
    19:00 +6°C° 0 mm 5 mps 774 mmHg 80%
    20:00 +5°C° 0 mm 5 mps 774 mmHg 81%
    21:00 +3°C° 0 mm 5 mps 774 mmHg 82%
    22:00 +3°C° 0 mm 5 mps 774 mmHg 83%
    23:00 +2°C° 0 mm 5 mps 774 mmHg 84%

    Day after tomorrow, 25 March, Monday

    Time Temperature Precipitation Wind Pressure Humidity
    00:00 +3°C° 0 mm 4 mps 774 mmHg 86%
    01:00 +3°C° 0 mm 4 mps 774 mmHg 86%
    02:00 +4°C° 0 mm 4 mps 774 mmHg 87%
    03:00 +4°C° 0 mm 4 mps 774 mmHg 88%
    04:00 +4°C° 0 mm 4 mps 774 mmHg 90%
    05:00 +3°C° 0 mm 5 mps 774 mmHg 92%
    06:00 +3°C° 0 mm 5 mps 774 mmHg 94%
    07:00 +5°C° 0 mm 5 mps 775 mmHg 89%
    08:00 +6°C° 0 mm 5 mps 775 mmHg 83%
    09:00 +8°C° 0 mm 5 mps 775 mmHg 78%
    10:00 +10°C° 0 mm 4 mps 775 mmHg 73%
    11:00 +11°C° 0 mm 3 mps 775 mmHg 68%
    12:00 +12°C° 0 mm 3 mps 775 mmHg 63%
    13:00 +13°C° 0 mm 2 mps 775 mmHg 64%
    14:00 +13°C° 0 mm 2 mps 775 mmHg 65%
    15:00 +13°C° 0 mm 2 mps 775 mmHg 65%
    16:00 +12°C° 0 mm 1 mps 775 mmHg 71%
    17:00 +11°C° 0 mm 1 mps 775 mmHg 77%
    18:00 +11°C° 0 mm 1 mps 775 mmHg 82%
    19:00 +8°C° 0 mm 2 mps 775 mmHg 85%
    20:00 +7°C° 0 mm 2 mps 775 mmHg 88%
    21:00 +6°C° 0 mm 2 mps 776 mmHg 91%
    22:00 +5°C° 0 mm 3 mps 776 mmHg 91%
    23:00 +4°C° 0 mm 3 mps 776 mmHg 91%

    26 March, Tuesday

    Time Temperature Precipitation Wind Pressure Humidity
    00:00 +4°C° 0 mm 3 mps 776 mmHg 91%
    01:00 +4°C° 0 mm 3 mps 776 mmHg 91%
    02:00 +5°C° 0 mm 2 mps 776 mmHg 91%
    03:00 +5°C° 0 mm 2 mps 776 mmHg 91%
    04:00 +4°C° 0 mm 2 mps 776 mmHg 91%
    05:00 +4°C° 0 mm 2 mps 776 mmHg 91%
    06:00 +4°C° 0 mm 2 mps 776 mmHg 90%
    07:00 +6°C° 0 mm 2 mps 776 mmHg 86%
    08:00 +7°C° 0 mm 2 mps 776 mmHg 81%
    09:00 +9°C° 0 mm 2 mps 776 mmHg 76%
    10:00 +10°C° 0 mm 2 mps 776 mmHg 73%
    11:00 +11°C° 0 mm 3 mps 776 mmHg 70%
    12:00 +12°C° 0 mm 3 mps 776 mmHg 67%
    13:00 +12°C° 0 mm 3 mps 776 mmHg 67%
    14:00 +12°C° 0 mm 2 mps 776 mmHg 68%
    15:00 +12°C° 0 mm 2 mps 776 mmHg 69%
    16:00 +12°C° 0 mm 2 mps 775 mmHg 73%
    17:00 +11°C° 0 mm 1 mps 775 mmHg 78%
    18:00 +10°C° 0 mm 1 mps 775 mmHg 83%
    19:00 +9°C° 0 mm 1 mps 775 mmHg 86%
    20:00 +8°C° 0 mm 1 mps 775 mmHg 89%
    21:00 +6°C° 0 mm 1 mps 776 mmHg 91%
    22:00 +6°C° 0 mm 1 mps 776 mmHg 92%
    23:00 +5°C° 0 mm 2 mps 776 mmHg 93%

    27 March, Wednesday

    Time Temperature Precipitation Wind Pressure Humidity
    00:00 +5°C° 0 mm 2 mps 776 mmHg 94%
    01:00 +5°C° 0 mm 2 mps 775 mmHg 93%
    02:00 +4°C° 0 mm 2 mps 775 mmHg 92%
    03:00 +4°C° 0 mm 2 mps 775 mmHg 91%
    04:00 +4°C° 0 mm 2 mps 775 mmHg 90%
    05:00 +4°C° 0 mm 2 mps 775 mmHg 90%
    06:00 +4°C° 0 mm 2 mps 775 mmHg 89%
    07:00 +6°C° 0 mm 2 mps 775 mmHg 84%
    08:00 +8°C° 0 mm 2 mps 775 mmHg 79%
    09:00 +10°C° 0 mm 2 mps 775 mmHg 74%
    10:00 +12°C° 0 mm 2 mps 775 mmHg 70%
    11:00 +13°C° 0 mm 2 mps 776 mmHg 65%
    12:00 +15°C° 0 mm 2 mps 776 mmHg 61%
    13:00 +15°C° 0 mm 2 mps 775 mmHg 62%
    14:00 +15°C° 0 mm 2 mps 775 mmHg 62%
    15:00 +16°C° 0 mm 2 mps 775 mmHg 63%
    16:00 +15°C° 0 mm 1 mps 775 mmHg 70%
    17:00 +13°C° 0 mm 1 mps 774 mmHg 76%
    18:00 +12°C° 0 mm 1 mps 774 mmHg 83%
    19:00 +11°C° 0 mm 1 mps 774 mmHg 85%
    20:00 +9°C° 0 mm 1 mps 774 mmHg 87%
    21:00 +8°C° 0 mm 1 mps 775 mmHg 90%
    22:00 +7°C° 0 mm 2 mps 775 mmHg 90%
    23:00 +7°C° 0 mm 2 mps 774 mmHg 90%

    28 March, Thursday

    Time Temperature Precipitation Wind Pressure Humidity
    00:00 +7°C° 0 mm 2 mps 774 mmHg 90%
    01:00 +7°C° 0 mm 2 mps 774 mmHg 90%
    02:00 +7°C° 0 mm 2 mps 774 mmHg 90%
    03:00 +5°C° 0 mm 3 mps 774 mmHg 90%
    04:00 +5°C° 0 mm 3 mps 774 mmHg 91%
    05:00 +5°C° 0 mm 3 mps 774 mmHg 91%
    06:00 +5°C° 0 mm 3 mps 774 mmHg 92%
    07:00 +8°C° 0 mm 3 mps 774 mmHg 88%
    08:00 +10°C° 0 mm 3 mps 774 mmHg 85%
    09:00 +11°C° 0 mm 3 mps 774 mmHg 81%
    10:00 +13°C° 0 mm 3 mps 775 mmHg 77%
    11:00 +14°C° 0 mm 3 mps 775 mmHg 73%
    12:00 +16°C° 0 mm 3 mps 775 mmHg 69%
    13:00 +16°C° 0 mm 3 mps 774 mmHg 70%
    14:00 +15°C° 0 mm 4 mps 774 mmHg 70%
    15:00 +15°C° 0 mm 4 mps 773 mmHg 71%
    16:00 +14°C° 0 mm 3 mps 773 mmHg 76%
    17:00 +13°C° 0 mm 3 mps 773 mmHg 81%
    18:00 +11°C° 0 mm 3 mps 773 mmHg 86%
    19:00 +10°C° 0 mm 3 mps 773 mmHg 88%
    20:00 +9°C° 0 mm 3 mps 773 mmHg 90%
    21:00 +8°C° 0 mm 3 mps 774 mmHg 91%
    22:00 +8°C° 0 mm 3 mps 774 mmHg 92%
    23:00 +8°C° 0 mm 3 mps 773 mmHg 92%
    Show more